Search your local weather  

 
Advertise Here

Hazardous Weather Conditions

No active alerts for CHICAGO, ILLINOIS

Current Conditions: CHICAGO, ILLINOIS

A Few Clouds


44.0 F

Last Updated on Nov 27 2020, 12:52 pm CST
Humidity: 68%
Wind Speed: W 8.1 mph
Barometer 30.06 in
Dewpoint: 34.0 F
Visibility: 10.00 mi
Precip: --
Heat Index: NA
Wind Chill: 39 F
Current conditions at:

Chicago / Wheeling, Pal-Waukee Airport, IL (KPWK)

Lat: 42.12083 Lon: -87.90472

Local Radar Image active severe weather and emergency alerts image image weather storm and storm spotter reports image weather observation monitoring service image
Local
Radar
Active
Alerts
Storm Reports Weather
Monitoring

5 Day Forecast for CHICAGO, ILLINOIS (60601)

Friday

Mostly Cloudy

High 47 °F
Friday
Night
Mostly Clear

Low 31 °F
Saturday

Mostly Sunny

High 48 °F
Saturday
Night
Mostly Clear

Low 35 °F
Sunday

Mostly Cloudy

High 48 °F
Sunday
Night
Chance of Snow
Low 31 °F
Monday

Chance of Snow
High 36 °F
Monday
Night
Chance of Snow
Low 28 °F
Tuesday

Slight Chance of Snow
High 36 °F

Sign-up For Email & Text Message Weather Alert Notification Services


Advertise Here

Observation History for CHICAGO, ILLINOIS


Time Wind
(mph)
Vis
(mi)
Weather Precip (in) Temperature (F) Relative
Humidity
Wind
Chill
(F)
Heat
Index
(F)
Pressure
Air Dwpt altimeter
(in)
sea level
(mb)
12:52 pm CST W 8.1 10.00 A Few Clouds -- 44.0 34.0 68% 39 NA 30.06 1018.3
11:52 am CST NW 9.2 8.00 Overcast -- 42.0 35.1 76% 36 NA 30.08 1018.8
10:52 am CST W 9.2 9.00 Overcast -- 44.0 36.0 73% 39 NA 30.10 1019.6
9:52 am CST W 5.8 6.00 Fog/Mist -- 43.0 39.0 86% 39 NA 30.10 1019.5
8:52 am CST SW 8.1 4.00 Fog/Mist -- 41.0 39.0 93% 36 NA 30.10 1019.8
7:52 am CST SW 5.8 5.00 Fog/Mist -- 42.0 39.0 89% 38 NA 30.09 1019.4
6:52 am CST SW 5.8 7.00 Overcast -- 42.0 39.0 89% 38 NA 30.08 1019.1
5:52 am CST SW 4.6 9.00 Overcast -- 42.0 39.0 89% 39 NA 30.08 1019.0
4:52 am CST S 4.6 10.00 Overcast -- 42.0 39.0 89% 39 NA 30.07 1018.6
3:52 am CST S 4.6 10.00 Overcast -- 43.0 39.0 86% 40 NA 30.07 1018.7
2:52 am CST SW 3.5 10.00 Overcast -- 43.0 39.0 86% NA NA 30.08 1019.0
9:52 pm CST S 5.8 10.00 Overcast -- 43.0 39.0 86% 39 NA 30.06 1018.4
8:52 pm CST S 5.8 10.00 Overcast -- 43.0 39.0 86% 39 NA 30.06 1018.2
7:52 pm CST W 3.5 10.00 Overcast -- 43.0 37.9 82% NA NA 30.06 1018.3
6:52 pm CST SW 5.8 10.00 Partly Cloudy -- 42.0 37.0 82% 38 NA 30.05 1017.8
5:52 pm CST SW 4.6 10.00 Fair -- 42.0 37.0 82% 39 NA 30.03 1017.3

Regional Weather Observation

Chicago, Chicago-OHare International Airport, IL (KORD)

Partly Cloudy
42.0 F

Chicago/Waukegan Regional Airport, IL (KUGN)

Fair
44.0 F

Chicago, Chicago Midway Airport, IL (KMDW)

Mostly Cloudy
44.0 F

Kenosha, Kenosha Regional Airport, WI (KENW)

Fair
45.0 F

Chicago / West Chicago, Dupage Airport, IL (KDPA)

A Few Clouds
42.0 F

Racine, Batten International Airport, WI (KRAC)

Fair
43.0 F
Advertise Here

Advertise Here